TimeEST,TemperatureF,Dew PointF,Humidity,Sea Level PressureIn,VisibilityMPH,Wind Direction,Wind SpeedMPH,Gust SpeedMPH,PrecipitationIn,Events,Conditions,WindDirDegrees,DateUTC
12:53 AM,45.0,41.0,86,30.20,3.0,Calm,Calm,-,N/A,,Clear,0,2012-12-15 05:53:00
1:53 AM,48.9,45.0,86,30.19,10.0,Calm,Calm,-,N/A,,Mostly Cloudy,0,2012-12-15 06:53:00
2:53 AM,50.0,44.1,80,30.16,10.0,Calm,Calm,-,N/A,,Clear,0,2012-12-15 07:53:00
3:53 AM,48.9,43.0,80,30.19,10.0,Calm,Calm,-,N/A,,Clear,0,2012-12-15 08:53:00
4:53 AM,48.0,43.0,83,30.18,10.0,Calm,Calm,-,N/A,,Clear,0,2012-12-15 09:53:00
5:53 AM,46.9,43.0,86,30.19,10.0,Calm,Calm,-,N/A,,Partly Cloudy,0,2012-12-15 10:53:00
6:53 AM,48.9,43.0,80,30.20,10.0,NE,3.5,-,N/A,,Mostly Cloudy,40,2012-12-15 11:53:00
7:53 AM,51.1,43.0,74,30.22,10.0,ENE,3.5,-,N/A,,Overcast,70,2012-12-15 12:53:00
8:24 AM,51.8,44.6,76,30.20,10.0,ENE,4.6,-,N/A,,Overcast,70,2012-12-15 13:24:00
9:24 AM,55.4,46.4,72,30.19,10.0,Variable,4.6,-,N/A,,Overcast,0,2012-12-15 14:24:00
9:53 AM,57.0,46.9,69,30.24,10.0,East,4.6,-,N/A,,Overcast,100,2012-12-15 14:53:00
10:53 AM,61.0,50.0,67,30.22,10.0,SE,4.6,-,N/A,,Overcast,130,2012-12-15 15:53:00
11:33 AM,64.4,53.6,68,30.19,10.0,Calm,Calm,-,N/A,,Mostly Cloudy,0,2012-12-15 16:33:00
11:53 AM,66.9,54.0,63,30.21,10.0,East,3.5,-,N/A,,Mostly Cloudy,100,2012-12-15 16:53:00
12:53 PM,69.1,55.9,63,30.18,10.0,NNE,3.5,-,N/A,,Mostly Cloudy,20,2012-12-15 17:53:00
1:00 PM,69.8,55.4,60,30.15,10.0,Variable,3.5,-,N/A,,Mostly Cloudy,0,2012-12-15 18:00:00
1:07 PM,69.8,55.4,60,30.15,10.0,North,4.6,-,N/A,,Scattered Clouds,350,2012-12-15 18:07:00
1:53 PM,71.1,55.9,59,30.15,10.0,North,4.6,-,N/A,,Mostly Cloudy,10,2012-12-15 18:53:00
2:53 PM,73.0,57.0,57,30.14,10.0,Calm,Calm,-,N/A,,Mostly Cloudy,0,2012-12-15 19:53:00
3:53 PM,73.9,57.0,55,30.12,10.0,Calm,Calm,-,N/A,,Clear,0,2012-12-15 20:53:00
4:53 PM,71.1,57.9,63,30.11,10.0,NE,3.5,-,N/A,,Partly Cloudy,40,2012-12-15 21:53:00
5:53 PM,64.0,57.0,78,30.12,10.0,Calm,Calm,-,N/A,,Clear,0,2012-12-15 22:53:00
6:53 PM,61.0,55.9,83,30.13,10.0,Calm,Calm,-,N/A,,Clear,0,2012-12-15 23:53:00
7:53 PM,59.0,54.0,83,30.13,6.0,Calm,Calm,-,N/A,,Haze,0,2012-12-16 00:53:00
8:53 PM,59.0,55.0,87,30.12,9.0,Calm,Calm,-,N/A,,Clear,0,2012-12-16 01:53:00
9:53 PM,60.1,55.9,86,30.13,9.0,Calm,Calm,-,N/A,,Overcast,0,2012-12-16 02:53:00
10:53 PM,61.0,57.0,87,30.10,10.0,SSE,3.5,-,N/A,,Overcast,150,2012-12-16 03:53:00
11:53 PM,59.0,55.0,87,30.13,7.0,Calm,Calm,-,N/A,,Scattered Clouds,0,2012-12-16 04:53:00